Location: Unspecified
(0.0000°N, 0.0000°E)
Time: 09:37:12
(UTC+00:00)

ARIANE 1 DEB - Pass Details

Date: 16 February 2026
Orbit: 1090 x 21662 km, 16.1° (Epoch: 9 December)

Event Time Altitude Azimuth Distance (km) Brightness Sun altitude
Rises 16:46:42 0° 291° (WNW) 5,320 ? 21.3°
Reaches altitude 10° 16:48:53 10° 293° (WNW) 4,804 ? 20.8°
Maximum altitude 17:04:21 81° 21° (NNE) 5,196 ? 17.0°
Drops below altitude 10° 21:35:37 10° 106° (ESE) 20,054 ? -48.9°
Sets 21:58:36 0° 103° (ESE) 17,834 ? -54.3°
